When you browse on this site, cookies collect data to enhance your experience and personalize the content and advertising you see.
Visit our Privacy Policy to learn more. By continuing to use the site, you agree to this use of cookies and data.
  • In Romania
  • List of Countries
  • For 7 days
  • Water Temperature
  • Weather Map
  • Weather Widgets
  • user-avatar
    Login

    Hourly Weather Matrah

    Today, 31 May, Sunday

    Time Temperature Precipitation Wind Pressure Humidity
    00:00 +38°C° 0 mm 3 mps 751 mmHg 43%
    01:00 +37°C° 0 mm 3 mps 751 mmHg 50%
    02:00 +36°C° 0 mm 4 mps 751 mmHg 52%
    03:00 +36°C° 0 mm 4 mps 751 mmHg 54%
    04:00 +35°C° 0 mm 5 mps 751 mmHg 55%
    05:00 +36°C° 0 mm 5 mps 751 mmHg 52%
    06:00 +36°C° 0 mm 4 mps 751 mmHg 50%
    07:00 +37°C° 0 mm 4 mps 752 mmHg 47%
    08:00 +39°C° 0 mm 3 mps 752 mmHg 41%
    09:00 +41°C° 0 mm 2 mps 752 mmHg 34%
    10:00 +43°C° 0 mm 1 mps 752 mmHg 28%
    11:00 +43°C° 0 mm 2 mps 751 mmHg 26%
    12:00 +45°C° 0 mm 2 mps 751 mmHg 24%
    13:00 +46°C° 0 mm 3 mps 751 mmHg 23%
    14:00 +45°C° 0 mm 3 mps 750 mmHg 24%
    15:00 +45°C° 0 mm 3 mps 750 mmHg 25%
    16:00 +44°C° 0 mm 3 mps 749 mmHg 26%
    17:00 +43°C° 0 mm 3 mps 750 mmHg 28%
    18:00 +42°C° 0 mm 3 mps 750 mmHg 30%
    19:00 +40°C° 0 mm 2 mps 750 mmHg 32%
    20:00 +40°C° 0 mm 2 mps 750 mmHg 31%
    21:00 +40°C° 0 mm 2 mps 751 mmHg 30%
    22:00 +40°C° 0 mm 2 mps 751 mmHg 29%
    23:00 +39°C° 0 mm 2 mps 751 mmHg 29%

    Tomorrow, 1 June, Monday

    Time Temperature Precipitation Wind Pressure Humidity
    00:00 +39°C° 0 mm 3 mps 750 mmHg 30%
    01:00 +38°C° 0 mm 3 mps 750 mmHg 30%
    02:00 +38°C° 0 mm 3 mps 750 mmHg 35%
    03:00 +37°C° 0 mm 3 mps 750 mmHg 40%
    04:00 +36°C° 0 mm 3 mps 750 mmHg 45%
    05:00 +37°C° 0 mm 3 mps 750 mmHg 44%
    06:00 +37°C° 0 mm 3 mps 751 mmHg 44%
    07:00 +38°C° 0 mm 3 mps 752 mmHg 43%
    08:00 +40°C° 0 mm 3 mps 752 mmHg 37%
    09:00 +42°C° 0 mm 2 mps 752 mmHg 31%
    10:00 +45°C° 0 mm 2 mps 752 mmHg 26%
    11:00 +45°C° 0 mm 3 mps 751 mmHg 25%
    12:00 +47°C° 0 mm 4 mps 751 mmHg 24%
    13:00 +47°C° 0 mm 5 mps 751 mmHg 23%
    14:00 +47°C° 0 mm 4 mps 750 mmHg 24%
    15:00 +45°C° 0 mm 4 mps 750 mmHg 25%
    16:00 +44°C° 0 mm 3 mps 749 mmHg 26%
    17:00 +43°C° 0 mm 3 mps 749 mmHg 27%
    18:00 +42°C° 0 mm 3 mps 749 mmHg 28%
    19:00 +40°C° 0 mm 3 mps 750 mmHg 29%
    20:00 +39°C° 0 mm 2 mps 750 mmHg 29%
    21:00 +39°C° 0 mm 2 mps 750 mmHg 29%
    22:00 +39°C° 0 mm 1 mps 750 mmHg 29%
    23:00 +38°C° 0 mm 2 mps 750 mmHg 32%

    Day after tomorrow, 2 June, Tuesday

    Time Temperature Precipitation Wind Pressure Humidity
    00:00 +37°C° 0 mm 2 mps 750 mmHg 35%
    01:00 +37°C° 0 mm 3 mps 749 mmHg 38%
    02:00 +36°C° 0 mm 2 mps 749 mmHg 38%
    03:00 +36°C° 0 mm 2 mps 749 mmHg 39%
    04:00 +35°C° 0 mm 1 mps 749 mmHg 39%
    05:00 +36°C° 0 mm 1 mps 750 mmHg 36%
    06:00 +37°C° 0 mm 1 mps 750 mmHg 34%
    07:00 +40°C° 0 mm 1 mps 750 mmHg 31%
    08:00 +41°C° 0 mm 1 mps 750 mmHg 28%
    09:00 +43°C° 0 mm 1 mps 750 mmHg 25%
    10:00 +45°C° 0 mm 1 mps 750 mmHg 22%
    11:00 +46°C° 0 mm 2 mps 750 mmHg 21%
    12:00 +47°C° 0 mm 3 mps 750 mmHg 20%
    13:00 +49°C° 0 mm 4 mps 749 mmHg 19%
    14:00 +48°C° 0 mm 4 mps 749 mmHg 19%
    15:00 +48°C° 0 mm 4 mps 748 mmHg 19%
    16:00 +47°C° 0 mm 4 mps 748 mmHg 20%
    17:00 +44°C° 0 mm 3 mps 748 mmHg 23%
    18:00 +42°C° 0 mm 3 mps 748 mmHg 26%
    19:00 +39°C° 0 mm 2 mps 749 mmHg 29%
    20:00 +39°C° 0 mm 2 mps 749 mmHg 28%
    21:00 +39°C° 0 mm 1 mps 749 mmHg 28%
    22:00 +37°C° 0 mm 1 mps 749 mmHg 27%
    23:00 +38°C° 0 mm 2 mps 749 mmHg 26%

    3 June, Wednesday

    Time Temperature Precipitation Wind Pressure Humidity
    00:00 +39°C° 0 mm 3 mps 748 mmHg 24%
    01:00 +39°C° 0 mm 3 mps 748 mmHg 23%
    02:00 +38°C° 0 mm 3 mps 748 mmHg 25%
    03:00 +37°C° 0 mm 3 mps 748 mmHg 27%
    04:00 +36°C° 0 mm 2 mps 748 mmHg 28%
    05:00 +37°C° 0 mm 2 mps 748 mmHg 31%
    06:00 +38°C° 0 mm 2 mps 748 mmHg 33%
    07:00 +37°C° 0 mm 1 mps 748 mmHg 36%
    08:00 +41°C° 0 mm 1 mps 749 mmHg 30%
    09:00 +43°C° 0 mm 2 mps 749 mmHg 24%
    10:00 +46°C° 0 mm 2 mps 749 mmHg 18%
    11:00 +47°C° 0 mm 3 mps 748 mmHg 17%
    12:00 +48°C° 0 mm 4 mps 748 mmHg 17%
    13:00 +48°C° 0 mm 5 mps 747 mmHg 17%
    14:00 +48°C° 0 mm 5 mps 747 mmHg 17%
    15:00 +47°C° 0 mm 4 mps 747 mmHg 18%
    16:00 +45°C° 0 mm 4 mps 746 mmHg 18%
    17:00 +44°C° 0 mm 4 mps 746 mmHg 19%
    18:00 +43°C° 0 mm 3 mps 746 mmHg 20%
    19:00 +42°C° 0 mm 3 mps 747 mmHg 21%
    20:00 +40°C° 0 mm 3 mps 747 mmHg 21%
    21:00 +41°C° 0 mm 4 mps 747 mmHg 22%
    22:00 +40°C° 0 mm 4 mps 747 mmHg 22%
    23:00 +40°C° 0 mm 4 mps 747 mmHg 22%

    4 June, Thursday

    Time Temperature Precipitation Wind Pressure Humidity
    00:00 +40°C° 0 mm 4 mps 747 mmHg 22%
    01:00 +38°C° 0 mm 4 mps 747 mmHg 22%
    02:00 +37°C° 0 mm 4 mps 747 mmHg 25%
    03:00 +37°C° 0 mm 4 mps 747 mmHg 29%
    04:00 +36°C° 0 mm 3 mps 747 mmHg 32%
    05:00 +37°C° 0 mm 4 mps 747 mmHg 31%
    06:00 +38°C° 0 mm 4 mps 747 mmHg 29%
    07:00 +40°C° 0 mm 4 mps 747 mmHg 28%
    08:00 +42°C° 0 mm 4 mps 748 mmHg 25%
    09:00 +45°C° 0 mm 5 mps 748 mmHg 22%
    10:00 +47°C° 0 mm 5 mps 748 mmHg 18%
    11:00 +48°C° 0 mm 5 mps 747 mmHg 18%
    12:00 +48°C° 0 mm 6 mps 747 mmHg 18%
    13:00 +48°C° 0 mm 6 mps 747 mmHg 18%
    14:00 +48°C° 0 mm 5 mps 746 mmHg 18%
    15:00 +47°C° 0 mm 4 mps 746 mmHg 18%
    16:00 +46°C° 0 mm 3 mps 746 mmHg 18%
    17:00 +44°C° 0 mm 3 mps 746 mmHg 21%
    18:00 +42°C° 0 mm 3 mps 746 mmHg 23%
    19:00 +40°C° 0 mm 3 mps 746 mmHg 26%
    20:00 +40°C° 0 mm 3 mps 746 mmHg 24%
    21:00 +40°C° 0 mm 3 mps 746 mmHg 22%
    22:00 +40°C° 0 mm 3 mps 747 mmHg 20%
    23:00 +39°C° 0 mm 3 mps 747 mmHg 22%

    5 June, Friday

    Time Temperature Precipitation Wind Pressure Humidity
    00:00 +38°C° 0 mm 3 mps 746 mmHg 24%
    01:00 +37°C° 0 mm 3 mps 746 mmHg 25%
    02:00 +36°C° 0 mm 3 mps 746 mmHg 30%
    03:00 +35°C° 0 mm 2 mps 746 mmHg 35%
    04:00 +34°C° 0 mm 2 mps 746 mmHg 40%
    05:00 +37°C° 0 mm 2 mps 746 mmHg 34%
    06:00 +39°C° 0 mm 3 mps 747 mmHg 28%
    07:00 +42°C° 0 mm 3 mps 747 mmHg 22%
    08:00 +43°C° 0 mm 4 mps 748 mmHg 24%
    09:00 +45°C° 0 mm 5 mps 748 mmHg 25%
    10:00 +46°C° 0 mm 6 mps 748 mmHg 26%
    11:00 +47°C° 0 mm 5 mps 748 mmHg 25%
    12:00 +47°C° 0 mm 4 mps 748 mmHg 25%
    13:00 +47°C° 0 mm 3 mps 748 mmHg 24%
    14:00 +46°C° 0 mm 3 mps 747 mmHg 23%
    15:00 +46°C° 0 mm 3 mps 747 mmHg 22%
    16:00 +46°C° 0 mm 2 mps 746 mmHg 21%
    17:00 +43°C° 0 mm 2 mps 746 mmHg 28%
    18:00 +40°C° 0 mm 2 mps 746 mmHg 34%
    19:00 +38°C° 0 mm 3 mps 746 mmHg 41%
    20:00 +37°C° 0 mm 3 mps 746 mmHg 48%
    21:00 +36°C° 0 mm 4 mps 746 mmHg 55%
    22:00 +34°C° 0 mm 4 mps 747 mmHg 62%
    23:00 +34°C° 0 mm 4 mps 747 mmHg 61%
    Show more